Regional Weather Roundup
Issued by NWS

Home | Current Version | Previous Version | Graphics & Text | Print | Product List | Glossary On
Versions: 1 2 3 4 5 6 7 8 9 10 11 12 13 14 15 16 17 18 19 20 21 22 23 24 25 26 27 28 29 30 31 32 33 34 35 36 37 38 39 40 41 42 43 44 45 46 47 48 49 50
000
ASUS43 KLSX 201307
RWRMO

WEATHER SUMMARY FOR MISSOURI
NATIONAL WEATHER SERVICE SPRINGFIELD MO
800 AM CDT SUN MAY 20 2018

NOTE: "FAIR" INDICATES FEW OR NO CLOUDS BELOW 12,000 FEET WITH NO
       SIGNIFICANT WEATHER AND/OR OBSTRUCTIONS TO VISIBILITY.
       CURRENT SKY AND/OR WEATHER CONDITIONS ARE NOT AVAILABLE FOR
       CHILLICOTHE AND FARMINGTON.

MOZ001>031-035>038-043-044-053-054-201400-
...NORTHERN AND WESTERN MISSOURI...

CITY           SKY/WX    TMP DP  RH WIND       PRES   REMARKS
KANSAS CTY INT CLOUDY    65  63  93 SE6       30.07R
KANSAS C DTWN  TSTM      67  61  81 S13       30.06R
LEE`S SUMMIT   TSTM      65  64  97 S22G29    30.08S FOG
ST JOSEPH      PTSUNNY   63  60  90 N7        30.06R
CHILLICOTHE      N/A     65  63  93 N3        30.06R
KIRKSVILLE     CLOUDY    66  64  93 CALM      30.06R

$$
MOZ066>068-077>081-088>096-101>105-201400-
...SOUTHWEST MISSOURI...

CITY           SKY/WX    TMP DP  RH WIND       PRES   REMARKS
SPRINGFIELD    TSTM      64  60  87 NW10G18   30.11S
JOPLIN         TSTM      64  63  96 NE10      30.09F
BRANSON        CLOUDY    68  66  94 NW7       30.10R

$$
MOZ032>034-039>042-045>050-055>058-069>072-201400-
...CENTRAL MISSOURI...

CITY           SKY/WX    TMP DP  RH WIND       PRES   REMARKS
COLUMBIA       CLOUDY    65  63  93 S10       30.07R
JEFFERSON CITY LGT RAIN  65  63  93 VRB3      30.05R
ROLLA          CLOUDY    65  63  93 E3        30.07R
SEDALIA        RAIN      65  65 100 N3        30.12R FOG
WHITEMAN AFB   TSTM      64  63  97 W8        30.04R
WARRENSBURG    TSTM      63  61  94 SW9       30.07F
OSAGE BEACH    CLOUDY    64  63  96 E3        30.05R THUNDER

$$
MOZ051-052-059>065-201400-
...EAST CENTRAL MISSOURI...

CITY           SKY/WX    TMP DP  RH WIND       PRES   REMARKS
ST LOUIS INTL  CLOUDY    65  64  97 SE13      30.08F
SPIRIT OF STL  CLOUDY    66  64  93 SE6       30.06S
ST CHARLES       N/A    N/A N/A N/A MISG      30.04F

$$
MOZ072>076-082>087-097>100-106>115-201400-
...SOUTH CENTRAL AND SOUTHEAST MISSOURI...

CITY           SKY/WX    TMP DP  RH WIND       PRES   REMARKS
CAPE GIRARDEAU FAIR      72  65  78 CALM      30.09R
FARMINGTON       N/A     68  64  87 SE3       30.11S
POPLAR BLUFF   FAIR      74  68  81 N6        30.07R
WEST PLAINS    MOSUNNY   68  65  90 CALM      30.09S

$$




USA.gov is the U.S. government's official web portal to all federal, state and local government web resources and services.